This is the latest recevied weather packets stored in our database for station/object KD7ECD. If no packets are shown the sender has not sent any weather packets the latest 1 day(s).
| Time | Temp. | Humidity | Pressure | Rain* | Wind** | Luminosity | Snow |
|---|---|---|---|---|---|---|---|
| 1778030525 | 15° C | 80% | 1018.3 hPa | 0 mm | 3.13 m/s, 209° | 38 W/m² | - |
| 1778029924 | 15° C | 79% | 1018.2 hPa | 0 mm | 3.58 m/s, 226° | 53 W/m² | - |
| 1778029319 | 15.56° C | 78% | 1018.2 hPa | 0 mm | 2.24 m/s, 196° | 69 W/m² | - |
| 1778028719 | 15.56° C | 77% | 1017.9 hPa | 0 mm | 2.68 m/s, 219° | 79 W/m² | - |
| 1778028119 | 15.56° C | 76% | 1018.2 hPa | 0 mm | 2.24 m/s, 210° | 96 W/m² | - |
| 1778027516 | 15.56° C | 76% | 1018 hPa | 0 mm | 3.13 m/s, 223° | 108 W/m² | - |
| 1778026914 | 15.56° C | 77% | 1018.1 hPa | 0 mm | 2.24 m/s, 213° | 131 W/m² | - |
| 1778026314 | 15.56° C | 77% | 1018 hPa | 0 mm | 3.13 m/s, 225° | 139 W/m² | - |
| 1778025708 | 15.56° C | 77% | 1017.7 hPa | 0 mm | 3.58 m/s, 213° | 170 W/m² | - |
| 1778025109 | 15.56° C | 77% | 1017.7 hPa | 0 mm | 3.58 m/s, 188° | 177 W/m² | - |
| 1778024508 | 15.56° C | 78% | 1017.8 hPa | 0 mm | 2.68 m/s, 222° | 149 W/m² | - |
| 1778023908 | 15° C | 78% | 1017.9 hPa | 0 mm | 2.24 m/s, 207° | 191 W/m² | - |
| 1778023303 | 15° C | 79% | 1017.9 hPa | 0 mm | 2.24 m/s, 214° | 180 W/m² | - |
| 1778022699 | 15.56° C | 78% | 1018.2 hPa | 0 mm | 2.24 m/s, 233° | 197 W/m² | - |
| 1778022098 | 15° C | 79% | 1018.3 hPa | 0 mm | 2.68 m/s, 253° | 211 W/m² | - |
| 1778021497 | 15.56° C | 79% | 1017.9 hPa | 0 mm | 2.24 m/s, 290° | 219 W/m² | - |
| 1778020897 | 15° C | 79% | 1017.9 hPa | 0 mm | 3.13 m/s, 260° | 262 W/m² | - |
| 1778020296 | 15° C | 79% | 1018.2 hPa | 0 mm | 2.68 m/s, 226° | 275 W/m² | - |
| 1778019694 | 15° C | 81% | 1018.1 hPa | 0 mm | 2.68 m/s, 245° | 263 W/m² | - |
| 1778019094 | 14.44° C | 81% | 1018.3 hPa | 0 mm | 3.58 m/s, 230° | 262 W/m² | - |
| 1778018494 | 14.44° C | 81% | 1018.1 hPa | 0 mm | 3.13 m/s, 242° | 226 W/m² | - |
| 1778017890 | 14.44° C | 82% | 1018.2 hPa | 0 mm | 3.58 m/s, 251° | 200 W/m² | - |
| 1778017290 | 14.44° C | 81% | 1018.2 hPa | 0 mm | 3.58 m/s, 236° | 169 W/m² | - |
| 1778016690 | 14.44° C | 82% | 1018.3 hPa | 0 mm | 3.13 m/s, 237° | 168 W/m² | - |
| 1778016090 | 14.44° C | 82% | 1018.3 hPa | 0 mm | 4.02 m/s, 260° | 167 W/m² | - |
* Rain latest hour (hover to see other rain measurements)
** Current wind speed in m/s (hover to see current wind gust speed)